Terminal Aerodrome Forecast
Issued by NWS

Home | Current Version | Previous Version | Text Only | Print | Product List | Glossary Off
Versions: 1 2 3 4 5 6 7 8 9 10 11 12 13 14 15 16 17 18 19 20 21 22 23 24 25 26 27 28 29 30 31 32 33 34 35 36 37 38 39

000
FTUS43 KLOT 282200 AAB
TAFDPA
TAF AMD
KDPA 282202Z 2822/2918 16013KT P6SM BKN200
     FM290400 17015G23KT P6SM VCSH SCT030 BKN100
     FM290900 23013KT 6SM -SHRA SCT009 OVC015
     FM291200 28010KT 3SM -RASN BR OVC007
     FM291500 32016G27KT P6SM OVC015=

USA.gov is the U.S. government's official web portal to all federal, state and local government web resources and services.